Tiempo cada hora Aaruti

Hoy, 24 Junio, Jueves

Tiempo Temperatura Precipitaciones Viento Presión Humedad
00:00 +16°C° 1.1 mm 1 mps 720 mmHg 98%
01:00 +15°C° 0 mm 1 mps 720 mmHg 98%
02:00 +14°C° 0 mm 0 mps 720 mmHg 98%
03:00 +13°C° 0 mm 0 mps 719 mmHg 98%
04:00 +13°C° 0 mm 0 mps 719 mmHg 98%
05:00 +14°C° 0 mm 0 mps 719 mmHg 97%
06:00 +14°C° 0 mm 0 mps 719 mmHg 95%
07:00 +15°C° 0 mm 0 mps 719 mmHg 94%
08:00 +17°C° 0.1 mm 0 mps 719 mmHg 85%
09:00 +20°C° 0.1 mm 1 mps 720 mmHg 77%
10:00 +22°C° 0.1 mm 1 mps 720 mmHg 68%
11:00 +23°C° 0.4 mm 1 mps 720 mmHg 67%
12:00 +23°C° 0.4 mm 1 mps 719 mmHg 65%
13:00 +24°C° 0.4 mm 1 mps 719 mmHg 64%
14:00 +21°C° 1.4 mm 2 mps 719 mmHg 72%
15:00 +20°C° 1.4 mm 2 mps 719 mmHg 79%
16:00 +19°C° 1.4 mm 3 mps 719 mmHg 87%
17:00 +18°C° 3.3 mm 3 mps 720 mmHg 89%
18:00 +16°C° 3.3 mm 3 mps 720 mmHg 92%
19:00 +14°C° 3.3 mm 4 mps 721 mmHg 94%
20:00 +14°C° 0.2 mm 3 mps 721 mmHg 95%
21:00 +14°C° 0.2 mm 2 mps 721 mmHg 96%
22:00 +13°C° 0.2 mm 1 mps 721 mmHg 96%
23:00 +13°C° 0 mm 1 mps 721 mmHg 96%

Mañana, 25 Junio, Viernes

Tiempo Temperatura Precipitaciones Viento Presión Humedad
00:00 +13°C° 0 mm 1 mps 721 mmHg 96%
01:00 +12°C° 0 mm 1 mps 721 mmHg 97%
02:00 +12°C° 0 mm 1 mps 721 mmHg 97%
03:00 +12°C° 0 mm 1 mps 721 mmHg 97%
04:00 +12°C° 0 mm 1 mps 721 mmHg 97%
05:00 +13°C° 0 mm 1 mps 721 mmHg 95%
06:00 +14°C° 0 mm 1 mps 721 mmHg 94%
07:00 +13°C° 0 mm 0 mps 721 mmHg 93%
08:00 +15°C° 0.1 mm 1 mps 721 mmHg 90%
09:00 +16°C° 0.1 mm 1 mps 721 mmHg 86%
10:00 +18°C° 0.1 mm 1 mps 721 mmHg 83%
11:00 +19°C° 0.3 mm 1 mps 721 mmHg 76%
12:00 +19°C° 0.3 mm 2 mps 721 mmHg 70%
13:00 +21°C° 0.3 mm 2 mps 720 mmHg 63%
14:00 +21°C° 0.3 mm 2 mps 720 mmHg 64%
15:00 +21°C° 0.3 mm 2 mps 720 mmHg 65%
16:00 +21°C° 0.3 mm 2 mps 720 mmHg 65%
17:00 +21°C° 0.5 mm 1 mps 720 mmHg 73%
18:00 +20°C° 0.5 mm 1 mps 720 mmHg 80%
19:00 +19°C° 0.5 mm 1 mps 720 mmHg 87%
20:00 +16°C° 0.1 mm 1 mps 720 mmHg 90%
21:00 +15°C° 0.1 mm 1 mps 721 mmHg 92%
22:00 +13°C° 0.1 mm 1 mps 721 mmHg 94%
23:00 +13°C° 0 mm 1 mps 721 mmHg 95%

Pasado mañana, 26 Junio, Sábado

Tiempo Temperatura Precipitaciones Viento Presión Humedad
00:00 +12°C° 0 mm 0 mps 721 mmHg 95%
01:00 +11°C° 0 mm 0 mps 720 mmHg 95%
02:00 +11°C° 0 mm 0 mps 720 mmHg 96%
03:00 +11°C° 0 mm 0 mps 720 mmHg 96%
04:00 +11°C° 0 mm 1 mps 720 mmHg 96%
05:00 +11°C° 0 mm 0 mps 720 mmHg 95%
06:00 +12°C° 0 mm 0 mps 720 mmHg 94%
07:00 +14°C° 0 mm 0 mps 720 mmHg 92%
08:00 +18°C° 0 mm 1 mps 720 mmHg 83%
09:00 +19°C° 0 mm 1 mps 720 mmHg 74%
10:00 +21°C° 0 mm 1 mps 720 mmHg 65%
11:00 +23°C° 0 mm 1 mps 720 mmHg 60%
12:00 +24°C° 0 mm 1 mps 720 mmHg 56%
13:00 +25°C° 0 mm 1 mps 720 mmHg 51%
14:00 +26°C° 0 mm 1 mps 719 mmHg 49%
15:00 +26°C° 0 mm 1 mps 719 mmHg 48%
16:00 +26°C° 0 mm 1 mps 719 mmHg 46%
17:00 +25°C° 0 mm 1 mps 719 mmHg 56%
18:00 +24°C° 0 mm 1 mps 719 mmHg 65%
19:00 +23°C° 0 mm 1 mps 719 mmHg 75%
20:00 +21°C° 0 mm 1 mps 719 mmHg 81%
21:00 +19°C° 0 mm 1 mps 719 mmHg 86%
22:00 +18°C° 0 mm 1 mps 719 mmHg 92%
23:00 +16°C° 0 mm 1 mps 719 mmHg 93%

27 Junio, Domingo

Tiempo Temperatura Precipitaciones Viento Presión Humedad
00:00 +16°C° 0 mm 1 mps 718 mmHg 93%
01:00 +15°C° 0 mm 1 mps 718 mmHg 94%
02:00 +15°C° 0 mm 1 mps 718 mmHg 95%
03:00 +14°C° 0 mm 0 mps 718 mmHg 95%
04:00 +14°C° 0 mm 0 mps 718 mmHg 95%
05:00 +15°C° 0 mm 0 mps 718 mmHg 91%
06:00 +16°C° 0 mm 0 mps 718 mmHg 88%
07:00 +17°C° 0 mm 0 mps 718 mmHg 84%
08:00 +21°C° 0 mm 1 mps 718 mmHg 76%
09:00 +23°C° 0 mm 1 mps 718 mmHg 68%
10:00 +25°C° 0 mm 1 mps 718 mmHg 60%
11:00 +26°C° 0 mm 1 mps 718 mmHg 55%
12:00 +28°C° 0 mm 1 mps 717 mmHg 51%
13:00 +29°C° 0 mm 2 mps 717 mmHg 46%
14:00 +29°C° 0 mm 2 mps 717 mmHg 45%
15:00 +30°C° 0 mm 2 mps 717 mmHg 45%
16:00 +30°C° 0 mm 2 mps 717 mmHg 44%
17:00 +28°C° 0.1 mm 2 mps 717 mmHg 55%
18:00 +26°C° 0.1 mm 2 mps 716 mmHg 66%
19:00 +24°C° 0.1 mm 2 mps 716 mmHg 78%
20:00 +23°C° 2.3 mm 2 mps 716 mmHg 84%
21:00 +21°C° 2.3 mm 1 mps 717 mmHg 90%
22:00 +19°C° 2.3 mm 1 mps 717 mmHg 96%
23:00 +19°C° 0 mm 1 mps 716 mmHg 96%

28 Junio, Lunes

Tiempo Temperatura Precipitaciones Viento Presión Humedad
00:00 +18°C° 0 mm 1 mps 716 mmHg 95%
01:00 +15°C° 0 mm 0 mps 716 mmHg 95%
02:00 +15°C° 0 mm 0 mps 716 mmHg 95%
03:00 +15°C° 0 mm 0 mps 716 mmHg 95%
04:00 +15°C° 0 mm 0 mps 716 mmHg 96%
05:00 +16°C° 0 mm 0 mps 716 mmHg 95%
06:00 +17°C° 0 mm 0 mps 716 mmHg 94%
07:00 +17°C° 0 mm 0 mps 716 mmHg 93%
08:00 +19°C° 0 mm 0 mps 716 mmHg 86%
09:00 +23°C° 0 mm 1 mps 716 mmHg 78%
10:00 +25°C° 0 mm 1 mps 716 mmHg 71%
11:00 +26°C° 0 mm 1 mps 716 mmHg 65%
12:00 +27°C° 0 mm 2 mps 716 mmHg 60%
13:00 +28°C° 0 mm 2 mps 716 mmHg 55%
14:00 +25°C° 0.3 mm 3 mps 716 mmHg 65%
15:00 +21°C° 0.3 mm 4 mps 717 mmHg 76%
16:00 +17°C° 0.3 mm 6 mps 717 mmHg 86%
17:00 +17°C° 0.5 mm 4 mps 718 mmHg 89%
18:00 +16°C° 0.5 mm 3 mps 718 mmHg 91%
19:00 +15°C° 0.5 mm 2 mps 719 mmHg 93%
20:00 +15°C° 0 mm 1 mps 719 mmHg 93%
21:00 +15°C° 0 mm 1 mps 719 mmHg 93%
22:00 +14°C° 0 mm 1 mps 719 mmHg 93%
23:00 +13°C° 0 mm 0 mps 719 mmHg 93%

29 Junio, Martes

Tiempo Temperatura Precipitaciones Viento Presión Humedad
00:00 +13°C° 0 mm 0 mps 719 mmHg 93%
01:00 +14°C° 0 mm 0 mps 719 mmHg 93%
02:00 +13°C° 0 mm 0 mps 719 mmHg 93%
03:00 +13°C° 0 mm 0 mps 718 mmHg 93%
04:00 +13°C° 0 mm 0 mps 718 mmHg 93%
05:00 +14°C° 0 mm 0 mps 718 mmHg 93%
06:00 +14°C° 0 mm 0 mps 718 mmHg 92%
07:00 +14°C° 0 mm 0 mps 718 mmHg 91%
08:00 +15°C° 0 mm 0 mps 718 mmHg 83%
09:00 +17°C° 0 mm 0 mps 718 mmHg 75%
10:00 +18°C° 0 mm 0 mps 718 mmHg 67%
11:00 +21°C° 0 mm 1 mps 718 mmHg 62%
12:00 +22°C° 0 mm 1 mps 718 mmHg 57%
13:00 +23°C° 0 mm 1 mps 718 mmHg 52%
14:00 +21°C° 0.2 mm 2 mps 718 mmHg 61%
15:00 +20°C° 0.2 mm 2 mps 718 mmHg 69%
16:00 +19°C° 0.2 mm 2 mps 718 mmHg 78%
17:00 +20°C° 0.1 mm 1 mps 718 mmHg 80%
18:00 +20°C° 0.1 mm 1 mps 719 mmHg 82%
19:00 +17°C° 0.1 mm 0 mps 719 mmHg 85%
20:00 +16°C° 0 mm 0 mps 719 mmHg 88%
21:00 +15°C° 0 mm 0 mps 719 mmHg 91%
22:00 +13°C° 0 mm 0 mps 719 mmHg 94%
23:00 +13°C° 0 mm 0 mps 719 mmHg 94%
Mostrar más

Necesitamos Su Consentimiento

Meteoprog y nuestros Proveedores de Servicios pueden almacenar y acceder a sus datos personales como cookies, identificadores de dispositivo u otras tecnologías similares de su dispositivo y procesar dichos datos para personalizar contenido y anuncios, además de ofrecer funciones de redes sociales y analizar el tráfico.

  • Almacenar y/o acceder a información en su dispositivo

    Se puede almacenar o acceder a cookies, identificadores de dispositivo u otra información de su dispositivo para los fines anteriormente indicados.

  • Anuncios y contenido personalizados, medición de anuncios y contenido, percepciones del público, y desarrollo de productos

    Los anuncios y el contenido pueden personalizarse en base a su perfil. Se pueden añadir más datos para personalizar mejor los anuncios y contenidos. Se puede medir el rendimiento de los anuncios y contenidos. Se puede obtener la percepción sobre el público que ha visto los anuncios y contenidos. Dichos datos pueden usarse para desarrollar o mejorar la experiencia del usuario, sistemas y software.

Al hacer clic en ‘Estoy De Acuerdo’ usted permitirá el uso de las cookies, identificadores de dispositivo, balizas web u otras tecnologías similares indicadas. Su configuración puede cambiarse desde el navegador de su dispositivo.

Para ciertos fines, los intereses legítimos pueden ser considerados por encima del consentimiento. Puede leer más sobre ello en nuestra Política de Privacidad y Cookies.